• In Russia
  • List of Countries
  • For 7 days
  • Water Temperature
  • Satellite Maps
  • Weather Map
  • Weather Widgets
  • user-avatar
    Login

    Hourly Weather Artashat

    Today, 17 February, Sunday

    Time Temperature Precipitation Wind Pressure Humidity
    00:00 -8°C° 0 mm 2 mps 596 mmHg 71%
    01:00 -8°C° 0 mm 2 mps 596 mmHg 71%
    02:00 -8°C° 0 mm 2 mps 596 mmHg 70%
    03:00 -7°C° 0 mm 2 mps 596 mmHg 68%
    04:00 -8°C° 0 mm 2 mps 596 mmHg 69%
    05:00 -8°C° 0 mm 2 mps 596 mmHg 70%
    06:00 -8°C° 0 mm 2 mps 596 mmHg 71%
    07:00 -8°C° 0 mm 2 mps 596 mmHg 69%
    08:00 -7°C° 0 mm 2 mps 597 mmHg 67%
    09:00 -6°C° 0 mm 2 mps 597 mmHg 64%
    10:00 -6°C° 0 mm 3 mps 597 mmHg 61%
    11:00 -5°C° 0 mm 3 mps 597 mmHg 58%
    12:00 -4°C° 0 mm 3 mps 598 mmHg 56%
    13:00 -4°C° 0 mm 3 mps 598 mmHg 55%
    14:00 -2°C° 0 mm 3 mps 598 mmHg 55%
    15:00 -3°C° 0 mm 4 mps 597 mmHg 55%
    16:00 -4°C° 0 mm 3 mps 597 mmHg 58%
    17:00 -6°C° 0 mm 3 mps 597 mmHg 61%
    18:00 -6°C° 0 mm 2 mps 597 mmHg 63%
    19:00 -7°C° 0 mm 2 mps 597 mmHg 63%
    20:00 -7°C° 0 mm 2 mps 597 mmHg 62%
    21:00 -8°C° 0 mm 2 mps 597 mmHg 62%
    22:00 -8°C° 0 mm 2 mps 597 mmHg 61%
    23:00 -8°C° 0 mm 2 mps 597 mmHg 61%

    Tomorrow, 18 February, Monday

    Time Temperature Precipitation Wind Pressure Humidity
    00:00 -9°C° 0 mm 2 mps 597 mmHg 60%
    01:00 -9°C° 0 mm 2 mps 597 mmHg 60%
    02:00 -9°C° 0 mm 2 mps 597 mmHg 60%
    03:00 -8°C° 0 mm 1 mps 596 mmHg 60%
    04:00 -9°C° 0 mm 2 mps 596 mmHg 61%
    05:00 -10°C° 0 mm 2 mps 596 mmHg 61%
    06:00 -10°C° 0 mm 2 mps 596 mmHg 61%
    07:00 -8°C° 0 mm 1 mps 596 mmHg 60%
    08:00 -7°C° 0 mm 1 mps 596 mmHg 59%
    09:00 -6°C° 0 mm 1 mps 596 mmHg 58%
    10:00 -4°C° 0 mm 1 mps 596 mmHg 57%
    11:00 -3°C° 0 mm 1 mps 596 mmHg 56%
    12:00 -1°C° 0 mm 1 mps 595 mmHg 54%
    13:00 -1°C° 0 mm 1 mps 595 mmHg 56%
    14:00 0°C° 0 mm 1 mps 595 mmHg 57%
    15:00 0°C° 0 mm 1 mps 594 mmHg 58%
    16:00 -1°C° 0 mm 1 mps 594 mmHg 61%
    17:00 -4°C° 0 mm 2 mps 593 mmHg 63%
    18:00 -6°C° 0 mm 2 mps 593 mmHg 66%
    19:00 -6°C° 0 mm 2 mps 593 mmHg 65%
    20:00 -6°C° 0 mm 2 mps 593 mmHg 64%
    21:00 -7°C° 0 mm 2 mps 593 mmHg 62%
    22:00 -7°C° 0 mm 2 mps 593 mmHg 62%
    23:00 -7°C° 0 mm 2 mps 593 mmHg 62%

    Day after tomorrow, 19 February, Tuesday

    Time Temperature Precipitation Wind Pressure Humidity
    00:00 -7°C° 0 mm 2 mps 593 mmHg 61%
    01:00 -8°C° 0 mm 2 mps 593 mmHg 62%
    02:00 -8°C° 0 mm 2 mps 593 mmHg 62%
    03:00 -8°C° 0 mm 2 mps 593 mmHg 63%
    04:00 -8°C° 0 mm 2 mps 593 mmHg 63%
    05:00 -8°C° 0 mm 2 mps 593 mmHg 63%
    06:00 -9°C° 0 mm 2 mps 593 mmHg 64%
    07:00 -8°C° 0 mm 2 mps 594 mmHg 62%
    08:00 -7°C° 0 mm 2 mps 595 mmHg 61%
    09:00 -6°C° 0 mm 2 mps 595 mmHg 60%
    10:00 -5°C° 0 mm 2 mps 596 mmHg 58%
    11:00 -5°C° 0 mm 3 mps 596 mmHg 56%
    12:00 -3°C° 0 mm 4 mps 596 mmHg 54%
    13:00 -3°C° 0 mm 4 mps 597 mmHg 52%
    14:00 -3°C° 0 mm 4 mps 597 mmHg 50%
    15:00 -3°C° 0 mm 4 mps 597 mmHg 49%
    16:00 -4°C° 0 mm 4 mps 597 mmHg 52%
    17:00 -6°C° 0 mm 3 mps 597 mmHg 54%
    18:00 -7°C° 0 mm 3 mps 597 mmHg 57%
    19:00 -8°C° 0 mm 3 mps 598 mmHg 58%
    20:00 -7°C° 0 mm 2 mps 598 mmHg 59%
    21:00 -8°C° 0 mm 2 mps 599 mmHg 60%
    22:00 -8°C° 0 mm 2 mps 599 mmHg 59%
    23:00 -8°C° 0 mm 2 mps 599 mmHg 59%

    20 February, Wednesday

    Time Temperature Precipitation Wind Pressure Humidity
    00:00 -9°C° 0 mm 2 mps 599 mmHg 58%
    01:00 -9°C° 0 mm 2 mps 600 mmHg 57%
    02:00 -9°C° 0 mm 2 mps 600 mmHg 56%
    03:00 -8°C° 0 mm 1 mps 600 mmHg 54%
    04:00 -9°C° 0 mm 1 mps 600 mmHg 53%
    05:00 -9°C° 0 mm 1 mps 600 mmHg 51%
    06:00 -9°C° 0 mm 1 mps 600 mmHg 49%
    07:00 -8°C° 0 mm 1 mps 600 mmHg 49%
    08:00 -7°C° 0 mm 1 mps 601 mmHg 48%
    09:00 -6°C° 0 mm 1 mps 601 mmHg 47%
    10:00 -4°C° 0 mm 1 mps 601 mmHg 47%
    11:00 -4°C° 0 mm 2 mps 601 mmHg 47%
    12:00 -3°C° 0 mm 2 mps 601 mmHg 47%
    13:00 -3°C° 0 mm 2 mps 601 mmHg 48%
    14:00 -2°C° 0 mm 2 mps 601 mmHg 48%
    15:00 -2°C° 0 mm 2 mps 601 mmHg 49%
    16:00 -3°C° 0 mm 2 mps 600 mmHg 52%
    17:00 -5°C° 0 mm 2 mps 600 mmHg 54%
    18:00 -4°C° 0 mm 1 mps 600 mmHg 57%
    19:00 -4°C° 0 mm 1 mps 600 mmHg 57%
    20:00 -6°C° 0 mm 1 mps 600 mmHg 56%
    21:00 -7°C° 0 mm 2 mps 601 mmHg 56%
    22:00 -7°C° 0 mm 2 mps 600 mmHg 55%
    23:00 -8°C° 0 mm 2 mps 600 mmHg 53%

    21 February, Thursday

    Time Temperature Precipitation Wind Pressure Humidity
    00:00 -8°C° 0 mm 2 mps 600 mmHg 52%
    01:00 -8°C° 0 mm 2 mps 600 mmHg 49%
    02:00 -8°C° 0 mm 2 mps 599 mmHg 47%
    03:00 -9°C° 0 mm 2 mps 599 mmHg 45%
    04:00 -9°C° 0 mm 2 mps 599 mmHg 44%
    05:00 -9°C° 0 mm 2 mps 599 mmHg 43%
    06:00 -9°C° 0 mm 2 mps 599 mmHg 41%
    07:00 -7°C° 0 mm 1 mps 599 mmHg 41%
    08:00 -6°C° 0 mm 1 mps 600 mmHg 41%
    09:00 -4°C° 0 mm 1 mps 600 mmHg 40%
    10:00 -3°C° 0 mm 1 mps 600 mmHg 39%
    11:00 -2°C° 0 mm 1 mps 600 mmHg 38%
    12:00 -2°C° 0 mm 0 mps 599 mmHg 37%
    13:00 0°C° 0 mm 1 mps 599 mmHg 38%
    14:00 0°C° 0 mm 1 mps 599 mmHg 40%
    15:00 0°C° 0 mm 1 mps 599 mmHg 41%
    16:00 -1°C° 0 mm 1 mps 598 mmHg 45%
    17:00 -2°C° 0 mm 1 mps 598 mmHg 49%
    18:00 -4°C° 0 mm 1 mps 598 mmHg 53%
    19:00 -4°C° 0 mm 1 mps 598 mmHg 53%
    20:00 -6°C° 0 mm 1 mps 598 mmHg 53%
    21:00 -7°C° 0 mm 2 mps 599 mmHg 54%
    22:00 -7°C° 0 mm 2 mps 599 mmHg 53%
    23:00 -8°C° 0 mm 2 mps 599 mmHg 53%

    22 February, Friday

    Time Temperature Precipitation Wind Pressure Humidity
    00:00 -8°C° 0 mm 2 mps 599 mmHg 52%
    01:00 -8°C° 0 mm 2 mps 598 mmHg 51%
    02:00 -8°C° 0 mm 2 mps 598 mmHg 50%
    03:00 -9°C° 0 mm 2 mps 598 mmHg 49%
    04:00 -9°C° 0 mm 2 mps 598 mmHg 48%
    05:00 -9°C° 0 mm 2 mps 598 mmHg 48%
    06:00 -9°C° 0 mm 2 mps 598 mmHg 47%
    07:00 -8°C° 0 mm 2 mps 598 mmHg 46%
    08:00 -6°C° 0 mm 1 mps 599 mmHg 46%
    09:00 -4°C° 0 mm 1 mps 599 mmHg 45%
    10:00 -3°C° 0 mm 1 mps 599 mmHg 44%
    11:00 -2°C° 0 mm 1 mps 599 mmHg 43%
    12:00 -1°C° 0 mm 1 mps 599 mmHg 42%
    13:00 -1°C° 0 mm 1 mps 598 mmHg 43%
    14:00 -1°C° 0 mm 1 mps 598 mmHg 44%
    15:00 0°C° 0 mm 1 mps 598 mmHg 45%
    16:00 -2°C° 0 mm 1 mps 598 mmHg 50%
    17:00 -3°C° 0 mm 1 mps 597 mmHg 54%
    18:00 -4°C° 0 mm 1 mps 597 mmHg 58%
    19:00 -4°C° 0 mm 1 mps 597 mmHg 59%
    20:00 -7°C° 0 mm 2 mps 597 mmHg 60%
    21:00 -7°C° 0 mm 2 mps 598 mmHg 61%
    22:00 -8°C° 0 mm 2 mps 598 mmHg 60%
    23:00 -8°C° 0 mm 2 mps 598 mmHg 60%
    Show more